Time,TemperatureF,DewpointF,PressureIn,WindDirection,WindDirectionDegrees,WindSpeedMPH,WindSpeedGustMPH,Humidity,HourlyPrecipIn,Conditions,Clouds,dailyrainin,SoftwareType,DateUTC
2013-08-08 00:01:00,70.7,68.3,30.03,SE,135,0.4,1.3,92,0.00,,,0.00,WUHU216HW,2013-08-08 04:01:00,
2013-08-08 00:06:00,70.9,68.5,30.03,South,180,0.0,1.1,92,0.00,,,0.00,WUHU216HW,2013-08-08 04:06:00,
2013-08-08 00:11:00,70.9,68.1,30.03,SW,225,0.0,1.1,91,0.00,,,0.00,WUHU216HW,2013-08-08 04:11:00,
2013-08-08 00:16:00,70.9,68.1,30.02,South,180,0.4,0.9,91,0.00,,,0.00,WUHU216HW,2013-08-08 04:16:00,
2013-08-08 00:21:00,70.9,68.1,30.03,WSW,248,0.7,1.8,91,0.00,,,0.00,WUHU216HW,2013-08-08 04:21:00,
2013-08-08 00:26:00,70.9,68.1,30.02,SW,225,0.2,1.8,91,0.00,,,0.00,WUHU216HW,2013-08-08 04:26:00,
2013-08-08 00:31:00,70.9,68.1,30.03,WSW,248,0.0,1.1,91,0.00,,,0.00,WUHU216HW,2013-08-08 04:31:00,
2013-08-08 00:36:00,70.9,68.1,30.03,NNE,23,0.9,1.1,91,0.00,,,0.00,WUHU216HW,2013-08-08 04:36:00,
2013-08-08 00:41:00,70.7,68.0,30.03,NNE,23,0.0,1.1,91,0.00,,,0.00,WUHU216HW,2013-08-08 04:41:00,
2013-08-08 00:46:00,70.6,67.8,30.03,NNE,23,0.9,1.1,91,0.00,,,0.00,WUHU216HW,2013-08-08 04:46:00,
2013-08-08 00:51:00,70.6,67.8,30.04,North,0,0.4,1.3,91,0.00,,,0.00,WUHU216HW,2013-08-08 04:51:00,
2013-08-08 00:56:00,70.6,67.8,30.04,NNE,23,0.0,1.3,91,0.00,,,0.00,WUHU216HW,2013-08-08 04:56:00,
2013-08-08 01:01:00,70.9,68.8,30.04,SSW,203,0.4,1.1,93,0.00,,,0.00,WUHU216HW,2013-08-08 05:01:00,
2013-08-08 01:06:00,70.9,68.5,30.04,SSW,203,0.0,1.1,92,0.01,,,0.01,WUHU216HW,2013-08-08 05:06:00,
2013-08-08 01:11:00,70.7,68.3,30.04,SSW,203,0.0,0.4,92,0.01,,,0.01,WUHU216HW,2013-08-08 05:11:00,
2013-08-08 01:16:00,70.9,68.5,30.04,SSW,203,0.0,0.4,92,0.01,,,0.01,WUHU216HW,2013-08-08 05:16:00,
2013-08-08 01:21:00,70.9,68.5,30.04,SW,225,0.0,0.4,92,0.01,,,0.01,WUHU216HW,2013-08-08 05:21:00,
2013-08-08 01:26:00,71.1,68.7,30.04,SW,225,0.0,0.4,92,0.01,,,0.01,WUHU216HW,2013-08-08 05:26:00,
2013-08-08 01:31:00,70.9,68.1,30.04,SSW,203,0.0,0.4,91,0.01,,,0.01,WUHU216HW,2013-08-08 05:31:00,
2013-08-08 01:36:00,70.9,68.1,30.03,East,90,0.0,0.7,91,0.01,,,0.01,WUHU216HW,2013-08-08 05:36:00,
2013-08-08 01:41:00,70.7,68.0,30.03,East,90,0.4,0.7,91,0.01,,,0.01,WUHU216HW,2013-08-08 05:41:00,
2013-08-08 01:46:00,70.6,67.8,30.03,East,90,0.0,0.4,91,0.01,,,0.01,WUHU216HW,2013-08-08 05:46:00,
2013-08-08 01:51:00,70.4,67.6,30.03,ENE,68,0.7,1.1,91,0.01,,,0.01,WUHU216HW,2013-08-08 05:51:00,
2013-08-08 01:56:00,70.2,67.4,30.02,ENE,68,0.7,1.1,91,0.01,,,0.01,WUHU216HW,2013-08-08 05:56:00,
2013-08-08 02:01:00,70.2,67.4,30.02,NE,45,1.1,1.3,91,0.00,,,0.01,WUHU216HW,2013-08-08 06:01:00,
2013-08-08 02:06:00,70.2,67.4,30.02,NE,45,0.9,1.6,91,0.00,,,0.01,WUHU216HW,2013-08-08 06:06:00,
2013-08-08 02:11:00,70.0,67.6,30.02,NE,45,0.7,1.6,92,0.00,,,0.01,WUHU216HW,2013-08-08 06:11:00,
2013-08-08 02:16:00,70.0,67.6,30.02,NNE,23,0.2,0.9,92,0.00,,,0.01,WUHU216HW,2013-08-08 06:16:00,
2013-08-08 02:21:00,70.0,67.6,30.02,NNE,23,0.0,0.7,92,0.00,,,0.01,WUHU216HW,2013-08-08 06:21:00,
2013-08-08 02:26:00,70.0,67.6,30.02,NNE,23,0.0,0.7,92,0.00,,,0.01,WUHU216HW,2013-08-08 06:26:00,
2013-08-08 02:31:00,70.0,67.6,30.02,NNE,23,0.0,0.7,92,0.00,,,0.01,WUHU216HW,2013-08-08 06:31:00,
2013-08-08 02:36:00,69.8,67.4,30.02,NNE,23,0.4,0.4,92,0.00,,,0.01,WUHU216HW,2013-08-08 06:36:00,
2013-08-08 02:41:00,69.7,67.2,30.02,NE,45,0.0,0.9,92,0.00,,,0.01,WUHU216HW,2013-08-08 06:41:00,
2013-08-08 02:46:00,69.5,67.1,30.02,NE,45,0.4,0.9,92,0.00,,,0.01,WUHU216HW,2013-08-08 06:46:00,
2013-08-08 02:51:00,69.5,67.1,30.02,NE,45,0.0,1.1,92,0.00,,,0.01,WUHU216HW,2013-08-08 06:51:00,
2013-08-08 02:56:00,69.1,66.7,30.02,NE,45,0.0,1.1,92,0.00,,,0.01,WUHU216HW,2013-08-08 06:56:00,
2013-08-08 03:01:00,69.1,66.7,30.02,NE,45,0.0,0.2,92,0.00,,,0.01,WUHU216HW,2013-08-08 07:01:00,
2013-08-08 03:06:00,69.1,66.7,30.02,NE,45,0.0,0.0,92,0.00,,,0.01,WUHU216HW,2013-08-08 07:06:00,
2013-08-08 03:11:00,69.1,66.7,30.02,NE,45,0.0,0.4,92,0.00,,,0.01,WUHU216HW,2013-08-08 07:11:00,
2013-08-08 03:16:00,69.3,66.9,30.02,NE,45,0.0,0.4,92,0.00,,,0.01,WUHU216HW,2013-08-08 07:16:00,
2013-08-08 03:21:00,69.3,66.9,30.02,NE,45,0.0,0.4,92,0.00,,,0.01,WUHU216HW,2013-08-08 07:21:00,
2013-08-08 03:26:00,69.3,66.9,30.02,NE,45,0.0,0.4,92,0.00,,,0.01,WUHU216HW,2013-08-08 07:26:00,
2013-08-08 03:31:00,69.1,66.7,30.02,NE,45,0.7,0.9,92,0.00,,,0.01,WUHU216HW,2013-08-08 07:31:00,
2013-08-08 03:36:00,68.9,66.5,30.02,NE,45,0.7,0.9,92,0.00,,,0.01,WUHU216HW,2013-08-08 07:36:00,
2013-08-08 03:41:00,68.8,66.3,30.02,NE,45,1.1,1.1,92,0.00,,,0.01,WUHU216HW,2013-08-08 07:41:00,
2013-08-08 03:46:00,68.6,66.2,30.02,NE,45,0.0,1.1,92,0.00,,,0.01,WUHU216HW,2013-08-08 07:46:00,
2013-08-08 03:51:00,68.4,66.0,30.02,NE,45,0.2,1.1,92,0.00,,,0.01,WUHU216HW,2013-08-08 07:51:00,
2013-08-08 03:56:00,68.4,66.0,30.02,NE,45,0.4,0.9,92,0.00,,,0.01,WUHU216HW,2013-08-08 07:56:00,
2013-08-08 04:01:00,68.4,66.0,30.01,NE,45,1.3,1.3,92,0.00,,,0.01,WUHU216HW,2013-08-08 08:01:00,
2013-08-08 04:06:00,68.4,66.2,30.02,ENE,68,0.7,1.3,93,0.00,,,0.01,WUHU216HW,2013-08-08 08:06:00,
2013-08-08 04:11:00,68.6,66.4,30.01,NE,45,0.4,1.3,93,0.00,,,0.01,WUHU216HW,2013-08-08 08:11:00,
2013-08-08 04:16:00,68.6,66.4,30.01,NNE,23,1.1,1.1,93,0.00,,,0.01,WUHU216HW,2013-08-08 08:16:00,
2013-08-08 04:21:00,68.6,66.4,30.01,NNE,23,0.0,1.1,93,0.00,,,0.01,WUHU216HW,2013-08-08 08:21:00,
2013-08-08 04:26:00,68.6,66.4,30.01,NNE,23,0.4,0.9,93,0.00,,,0.01,WUHU216HW,2013-08-08 08:26:00,
2013-08-08 04:31:00,68.4,66.2,30.02,NNE,23,0.0,0.4,93,0.00,,,0.01,WUHU216HW,2013-08-08 08:31:00,
2013-08-08 04:36:00,68.4,66.2,30.01,NNE,23,0.0,0.4,93,0.00,,,0.01,WUHU216HW,2013-08-08 08:36:00,
2013-08-08 04:41:00,68.4,66.2,30.01,NNE,23,0.0,0.0,93,0.00,,,0.01,WUHU216HW,2013-08-08 08:41:00,
2013-08-08 04:46:00,68.2,66.1,30.01,NNE,23,0.0,0.0,93,0.00,,,0.01,WUHU216HW,2013-08-08 08:46:00,
2013-08-08 04:51:00,68.2,66.1,30.01,ENE,68,0.4,0.4,93,0.00,,,0.01,WUHU216HW,2013-08-08 08:51:00,
2013-08-08 04:56:00,68.4,66.6,30.01,ESE,113,1.3,1.6,94,0.00,,,0.01,WUHU216HW,2013-08-08 08:56:00,
2013-08-08 05:01:00,68.4,66.6,30.01,ESE,113,0.0,1.6,94,0.00,,,0.01,WUHU216HW,2013-08-08 09:01:00,
2013-08-08 05:06:00,68.4,66.2,30.01,ESE,113,0.0,1.3,93,0.00,,,0.01,WUHU216HW,2013-08-08 09:06:00,
2013-08-08 05:11:00,68.4,66.2,30.01,ESE,113,0.0,0.0,93,0.00,,,0.01,WUHU216HW,2013-08-08 09:11:00,
2013-08-08 05:16:00,68.2,66.1,30.01,ESE,113,0.7,1.1,93,0.00,,,0.01,WUHU216HW,2013-08-08 09:16:00,
2013-08-08 05:21:00,68.0,65.9,30.01,East,90,0.0,1.1,93,0.00,,,0.01,WUHU216HW,2013-08-08 09:21:00,
2013-08-08 05:26:00,67.9,65.7,30.01,East,90,0.0,0.9,93,0.00,,,0.01,WUHU216HW,2013-08-08 09:26:00,
2013-08-08 05:31:00,67.9,65.7,30.01,East,90,0.0,0.0,93,0.00,,,0.01,WUHU216HW,2013-08-08 09:31:00,
2013-08-08 05:36:00,67.9,65.7,30.01,East,90,0.0,0.0,93,0.00,,,0.01,WUHU216HW,2013-08-08 09:36:00,
2013-08-08 05:41:00,67.9,65.7,30.01,East,90,0.0,0.0,93,0.00,,,0.01,WUHU216HW,2013-08-08 09:41:00,
2013-08-08 05:46:00,67.7,65.5,30.01,East,90,0.0,0.4,93,0.00,,,0.01,WUHU216HW,2013-08-08 09:46:00,
2013-08-08 05:51:00,67.7,65.5,30.02,East,90,0.0,0.4,93,0.00,,,0.01,WUHU216HW,2013-08-08 09:51:00,
2013-08-08 05:56:00,67.9,65.7,30.02,East,90,0.2,0.2,93,0.00,,,0.01,WUHU216HW,2013-08-08 09:56:00,
2013-08-08 06:01:00,67.7,65.5,30.02,East,90,0.4,0.7,93,0.00,,,0.01,WUHU216HW,2013-08-08 10:01:00,
2013-08-08 06:06:00,67.9,65.7,30.02,East,90,0.4,0.7,93,0.00,,,0.01,WUHU216HW,2013-08-08 10:06:00,
2013-08-08 06:11:00,67.9,65.7,30.02,East,90,0.0,0.4,93,0.00,,,0.01,WUHU216HW,2013-08-08 10:11:00,
2013-08-08 06:16:00,68.0,65.9,30.02,East,90,0.0,0.4,93,0.00,,,0.01,WUHU216HW,2013-08-08 10:16:00,
2013-08-08 06:21:00,68.4,66.6,30.02,East,90,0.4,0.4,94,0.00,,,0.01,WUHU216HW,2013-08-08 10:21:00,
2013-08-08 06:26:00,68.8,67.0,30.02,ESE,113,0.4,0.4,94,0.00,,,0.01,WUHU216HW,2013-08-08 10:26:00,
2013-08-08 06:31:00,68.9,67.2,30.02,South,180,0.4,0.7,94,0.00,,,0.01,WUHU216HW,2013-08-08 10:31:00,
2013-08-08 06:36:00,69.5,67.7,30.02,SSE,158,1.3,1.8,94,0.00,,,0.01,WUHU216HW,2013-08-08 10:36:00,
2013-08-08 06:41:00,69.3,67.5,30.02,SSW,203,0.4,1.8,94,0.00,,,0.01,WUHU216HW,2013-08-08 10:41:00,
2013-08-08 06:46:00,69.3,67.5,30.02,SSW,203,0.4,1.3,94,0.00,,,0.01,WUHU216HW,2013-08-08 10:46:00,
2013-08-08 06:51:00,69.3,67.5,30.02,South,180,0.0,0.4,94,0.00,,,0.01,WUHU216HW,2013-08-08 10:51:00,
2013-08-08 06:56:00,69.3,67.5,30.02,South,180,0.0,0.4,94,0.00,,,0.01,WUHU216HW,2013-08-08 10:56:00,
2013-08-08 07:01:00,69.3,67.5,30.02,SSW,203,0.4,0.4,94,0.00,,,0.01,WUHU216HW,2013-08-08 11:01:00,
2013-08-08 07:06:00,69.5,67.7,30.02,West,270,0.4,0.7,94,0.00,,,0.01,WUHU216HW,2013-08-08 11:06:00,
2013-08-08 07:11:00,69.5,67.7,30.02,WSW,248,0.0,1.3,94,0.00,,,0.01,WUHU216HW,2013-08-08 11:11:00,
2013-08-08 07:16:00,69.8,68.1,30.02,WSW,248,0.9,1.3,94,0.00,,,0.01,WUHU216HW,2013-08-08 11:16:00,
2013-08-08 07:21:00,70.0,68.2,30.02,WSW,248,0.9,1.3,94,0.00,,,0.01,WUHU216HW,2013-08-08 11:21:00,
2013-08-08 07:26:00,70.2,68.4,30.02,WSW,248,0.9,1.8,94,0.00,,,0.01,WUHU216HW,2013-08-08 11:26:00,
2013-08-08 07:31:00,70.4,68.2,30.02,WSW,248,1.6,1.8,93,0.00,,,0.01,WUHU216HW,2013-08-08 11:31:00,
2013-08-08 07:36:00,70.7,68.6,30.02,SSW,203,1.3,1.8,93,0.00,,,0.01,WUHU216HW,2013-08-08 11:36:00,
2013-08-08 07:41:00,70.9,68.8,30.03,South,180,1.1,1.8,93,0.00,,,0.01,WUHU216HW,2013-08-08 11:41:00,
2013-08-08 07:46:00,71.3,68.5,30.03,SSW,203,2.2,2.2,91,0.00,,,0.01,WUHU216HW,2013-08-08 11:46:00,
2013-08-08 07:51:00,71.5,68.7,30.03,SW,225,1.3,2.2,91,0.00,,,0.01,WUHU216HW,2013-08-08 11:51:00,
2013-08-08 07:56:00,71.8,69.0,30.03,West,270,1.8,2.2,91,0.00,,,0.01,WUHU216HW,2013-08-08 11:56:00,
2013-08-08 08:01:00,72.0,69.2,30.02,West,270,1.1,2.5,91,0.00,,,0.01,WUHU216HW,2013-08-08 12:01:00,
2013-08-08 08:06:00,72.4,69.6,30.03,West,270,0.4,2.5,91,0.00,,,0.01,WUHU216HW,2013-08-08 12:06:00,
2013-08-08 08:11:00,72.7,69.9,30.03,WNW,293,1.8,1.8,91,0.00,,,0.01,WUHU216HW,2013-08-08 12:11:00,
2013-08-08 08:16:00,73.1,70.3,30.03,WNW,293,0.4,1.8,91,0.00,,,0.01,WUHU216HW,2013-08-08 12:16:00,
2013-08-08 08:21:00,73.8,71.0,30.03,West,270,1.8,1.8,91,0.00,,,0.01,WUHU216HW,2013-08-08 12:21:00,
2013-08-08 08:26:00,74.0,70.9,30.03,West,270,0.7,1.8,90,0.00,,,0.01,WUHU216HW,2013-08-08 12:26:00,
2013-08-08 08:31:00,74.0,70.2,30.03,WSW,248,1.8,1.8,88,0.00,,,0.01,WUHU216HW,2013-08-08 12:31:00,
2013-08-08 08:36:00,74.0,70.2,30.03,WSW,248,1.1,2.0,88,0.00,,,0.01,WUHU216HW,2013-08-08 12:36:00,
2013-08-08 08:41:00,74.0,70.6,30.03,South,180,1.1,2.5,89,0.00,,,0.01,WUHU216HW,2013-08-08 12:41:00,
2013-08-08 08:46:00,74.2,70.4,30.03,West,270,1.1,2.5,88,0.00,,,0.01,WUHU216HW,2013-08-08 12:46:00,
2013-08-08 08:51:00,74.2,70.4,30.03,WSW,248,1.8,2.5,88,0.00,,,0.01,WUHU216HW,2013-08-08 12:51:00,
2013-08-08 08:56:00,74.5,71.1,30.03,West,270,0.9,2.5,89,0.00,,,0.01,WUHU216HW,2013-08-08 12:56:00,
2013-08-08 09:01:00,74.9,71.1,30.03,SSE,158,1.6,1.8,88,0.00,,,0.01,WUHU216HW,2013-08-08 13:01:00,
2013-08-08 09:06:00,75.6,70.5,30.03,SW,225,1.1,2.2,84,0.00,,,0.01,WUHU216HW,2013-08-08 13:06:00,
2013-08-08 09:11:00,76.3,71.1,30.03,West,270,2.9,2.9,84,0.00,,,0.01,WUHU216HW,2013-08-08 13:11:00,
2013-08-08 09:16:00,77.0,71.8,30.03,WSW,248,1.1,2.9,84,0.00,,,0.01,WUHU216HW,2013-08-08 13:16:00,
2013-08-08 09:21:00,77.4,71.5,30.03,SW,225,0.4,2.9,82,0.00,,,0.01,WUHU216HW,2013-08-08 13:21:00,
2013-08-08 09:26:00,77.8,71.1,30.03,West,270,2.5,4.7,80,0.00,,,0.01,WUHU216HW,2013-08-08 13:26:00,
2013-08-08 09:31:00,77.9,71.6,30.03,West,270,0.4,4.7,81,0.00,,,0.01,WUHU216HW,2013-08-08 13:31:00,
2013-08-08 09:36:00,77.8,71.1,30.03,WSW,248,1.8,3.4,80,0.00,,,0.01,WUHU216HW,2013-08-08 13:36:00,
2013-08-08 09:41:00,77.6,70.1,30.03,SW,225,1.8,3.8,78,0.00,,,0.01,WUHU216HW,2013-08-08 13:41:00,
2013-08-08 09:46:00,77.4,70.0,30.03,SW,225,2.0,4.0,78,0.00,,,0.01,WUHU216HW,2013-08-08 13:46:00,
2013-08-08 09:51:00,77.2,69.9,30.03,West,270,3.6,4.0,78,0.00,,,0.01,WUHU216HW,2013-08-08 13:51:00,
2013-08-08 09:56:00,77.2,69.9,30.03,SSW,203,3.4,3.8,78,0.00,,,0.01,WUHU216HW,2013-08-08 13:56:00,
2013-08-08 10:01:00,77.2,70.2,30.03,West,270,1.1,3.8,79,0.00,,,0.01,WUHU216HW,2013-08-08 14:01:00,
2013-08-08 10:06:00,77.4,70.0,30.03,SSW,203,0.4,3.4,78,0.00,,,0.01,WUHU216HW,2013-08-08 14:06:00,
2013-08-08 10:11:00,77.8,71.1,30.03,SSW,203,0.7,2.9,80,0.00,,,0.01,WUHU216HW,2013-08-08 14:11:00,
2013-08-08 10:16:00,77.9,70.9,30.03,ESE,113,0.4,2.0,79,0.00,,,0.01,WUHU216HW,2013-08-08 14:16:00,
2013-08-08 10:21:00,78.1,71.5,30.03,SSW,203,0.4,2.0,80,0.00,,,0.01,WUHU216HW,2013-08-08 14:21:00,
2013-08-08 10:26:00,78.1,71.1,30.03,SE,135,1.1,2.5,79,0.00,,,0.01,WUHU216HW,2013-08-08 14:26:00,
2013-08-08 10:31:00,78.1,71.1,30.03,SSW,203,0.9,2.5,79,0.00,,,0.01,WUHU216HW,2013-08-08 14:31:00,
2013-08-08 10:36:00,78.3,70.5,30.03,South,180,2.9,3.1,77,0.00,,,0.01,WUHU216HW,2013-08-08 14:36:00,
2013-08-08 10:41:00,78.3,70.8,30.03,South,180,2.2,3.6,78,0.00,,,0.01,WUHU216HW,2013-08-08 14:41:00,
2013-08-08 10:46:00,78.3,70.8,30.03,SSE,158,1.1,3.6,78,0.00,,,0.01,WUHU216HW,2013-08-08 14:46:00,
2013-08-08 10:51:00,78.1,71.1,30.03,South,180,1.3,2.7,79,0.00,,,0.01,WUHU216HW,2013-08-08 14:51:00,
2013-08-08 10:56:00,78.3,71.6,30.03,South,180,1.1,2.2,80,0.00,,,0.01,WUHU216HW,2013-08-08 14:56:00,
2013-08-08 11:01:00,78.3,70.8,30.03,SE,135,1.8,2.5,78,0.00,,,0.01,WUHU216HW,2013-08-08 15:01:00,
2013-08-08 11:06:00,78.3,70.8,30.03,SE,135,2.0,4.0,78,0.00,,,0.01,WUHU216HW,2013-08-08 15:06:00,
2013-08-08 11:11:00,78.5,71.5,30.03,SE,135,3.4,4.0,79,0.00,,,0.01,WUHU216HW,2013-08-08 15:11:00,
2013-08-08 11:16:00,78.5,72.2,30.03,ENE,68,2.9,3.6,81,0.00,,,0.01,WUHU216HW,2013-08-08 15:16:00,
2013-08-08 11:21:00,78.5,72.2,30.03,SSE,158,1.8,3.6,81,0.00,,,0.01,WUHU216HW,2013-08-08 15:21:00,
2013-08-08 11:26:00,78.1,71.1,30.03,SE,135,2.2,3.8,79,0.00,,,0.01,WUHU216HW,2013-08-08 15:26:00,
2013-08-08 11:31:00,77.8,71.1,30.03,SE,135,2.2,3.8,80,0.00,,,0.01,WUHU216HW,2013-08-08 15:31:00,
2013-08-08 11:36:00,77.8,71.5,30.03,ESE,113,1.8,3.1,81,0.00,,,0.01,WUHU216HW,2013-08-08 15:36:00,
2013-08-08 11:41:00,77.8,71.5,30.03,East,90,2.0,2.5,81,0.00,,,0.01,WUHU216HW,2013-08-08 15:41:00,
2013-08-08 11:46:00,77.6,71.3,30.03,SE,135,1.8,3.4,81,0.00,,,0.01,WUHU216HW,2013-08-08 15:46:00,
2013-08-08 11:51:00,77.4,71.1,30.03,SE,135,1.8,3.4,81,0.00,,,0.01,WUHU216HW,2013-08-08 15:51:00,
2013-08-08 11:56:00,77.6,71.3,30.03,SE,135,2.9,3.4,81,0.00,,,0.01,WUHU216HW,2013-08-08 15:56:00,
2013-08-08 12:01:00,77.8,71.1,30.03,SE,135,2.2,3.1,80,0.00,,,0.01,WUHU216HW,2013-08-08 16:01:00,
2013-08-08 12:06:00,77.6,71.3,30.04,SW,225,1.6,3.1,81,0.00,,,0.01,WUHU216HW,2013-08-08 16:06:00,
2013-08-08 12:11:00,77.6,71.3,30.04,SE,135,1.3,3.1,81,0.00,,,0.01,WUHU216HW,2013-08-08 16:11:00,
2013-08-08 12:16:00,77.6,71.3,30.04,SE,135,0.4,2.5,81,0.00,,,0.01,WUHU216HW,2013-08-08 16:16:00,
2013-08-08 12:21:00,77.4,71.1,30.04,SSE,158,1.1,2.5,81,0.00,,,0.01,WUHU216HW,2013-08-08 16:21:00,
2013-08-08 12:26:00,77.6,71.3,30.04,SSW,203,0.7,1.8,81,0.00,,,0.01,WUHU216HW,2013-08-08 16:26:00,
2013-08-08 12:31:00,77.6,71.3,30.03,SE,135,1.8,2.7,81,0.00,,,0.01,WUHU216HW,2013-08-08 16:31:00,
2013-08-08 12:36:00,77.6,71.3,30.03,SE,135,1.8,2.7,81,0.00,,,0.01,WUHU216HW,2013-08-08 16:36:00,
2013-08-08 12:41:00,77.8,71.5,30.03,SSE,158,2.7,2.7,81,0.00,,,0.01,WUHU216HW,2013-08-08 16:41:00,
2013-08-08 12:46:00,77.9,71.6,30.03,SE,135,3.4,3.4,81,0.00,,,0.01,WUHU216HW,2013-08-08 16:46:00,
2013-08-08 12:51:00,77.9,71.6,30.02,SE,135,3.4,3.6,81,0.00,,,0.01,WUHU216HW,2013-08-08 16:51:00,
2013-08-08 12:56:00,78.1,71.8,30.03,SSE,158,1.8,3.6,81,0.00,,,0.01,WUHU216HW,2013-08-08 16:56:00,
2013-08-08 13:01:00,78.7,72.0,30.03,SSW,203,0.9,3.4,80,0.00,,,0.01,WUHU216HW,2013-08-08 17:01:00,
2013-08-08 13:06:00,79.4,72.7,30.03,SW,225,0.4,3.4,80,0.00,,,0.01,WUHU216HW,2013-08-08 17:06:00,
2013-08-08 13:11:00,80.3,72.5,30.03,East,90,4.7,4.7,77,0.00,,,0.01,WUHU216HW,2013-08-08 17:11:00,
2013-08-08 13:16:00,81.0,72.4,30.03,ESE,113,4.3,5.4,75,0.00,,,0.01,WUHU216HW,2013-08-08 17:16:00,
2013-08-08 13:21:00,81.4,71.9,30.02,SE,135,1.6,5.4,73,0.00,,,0.01,WUHU216HW,2013-08-08 17:21:00,
2013-08-08 13:26:00,81.4,72.3,30.02,SSW,203,2.5,5.1,74,0.00,,,0.01,WUHU216HW,2013-08-08 17:26:00,
2013-08-08 13:31:00,81.0,71.9,30.02,WSW,248,0.9,4.3,74,0.00,,,0.01,WUHU216HW,2013-08-08 17:31:00,
2013-08-08 13:36:00,81.0,71.9,30.02,ESE,113,1.3,4.3,74,0.00,,,0.01,WUHU216HW,2013-08-08 17:36:00,
2013-08-08 13:41:00,80.6,72.0,30.02,SE,135,1.8,4.0,75,0.00,,,0.01,WUHU216HW,2013-08-08 17:41:00,
2013-08-08 13:46:00,80.8,72.2,30.02,SSW,203,0.7,4.0,75,0.00,,,0.01,WUHU216HW,2013-08-08 17:46:00,
2013-08-08 13:51:00,81.2,72.6,30.02,South,180,0.7,3.6,75,0.00,,,0.01,WUHU216HW,2013-08-08 17:51:00,
2013-08-08 13:56:00,81.5,72.8,30.02,SSW,203,2.5,5.4,75,0.00,,,0.01,WUHU216HW,2013-08-08 17:56:00,
2013-08-08 14:01:00,81.4,71.9,30.02,SE,135,2.5,5.4,73,0.00,,,0.01,WUHU216HW,2013-08-08 18:01:00,
2013-08-08 14:06:00,81.5,72.8,30.02,SE,135,3.6,5.4,75,0.00,,,0.01,WUHU216HW,2013-08-08 18:06:00,
2013-08-08 14:11:00,81.5,72.0,30.02,SW,225,3.1,4.7,73,0.00,,,0.01,WUHU216HW,2013-08-08 18:11:00,
2013-08-08 14:16:00,81.4,72.3,30.02,SE,135,2.5,4.3,74,0.00,,,0.01,WUHU216HW,2013-08-08 18:16:00,
2013-08-08 14:21:00,81.2,72.6,30.02,ESE,113,1.1,4.7,75,0.00,,,0.01,WUHU216HW,2013-08-08 18:21:00,
2013-08-08 14:26:00,81.0,73.2,30.02,ESE,113,1.1,4.7,77,0.00,,,0.01,WUHU216HW,2013-08-08 18:26:00,
2013-08-08 14:31:00,81.0,73.2,30.02,SE,135,1.8,3.4,77,0.00,,,0.01,WUHU216HW,2013-08-08 18:31:00,
2013-08-08 14:36:00,81.2,72.6,30.02,SE,135,0.9,3.4,75,0.00,,,0.01,WUHU216HW,2013-08-08 18:36:00,
2013-08-08 14:41:00,81.2,72.6,30.02,SE,135,1.1,4.0,75,0.00,,,0.01,WUHU216HW,2013-08-08 18:41:00,
2013-08-08 14:46:00,80.8,72.5,30.02,SE,135,4.0,4.0,76,0.00,,,0.01,WUHU216HW,2013-08-08 18:46:00,
2013-08-08 14:51:00,80.3,72.0,30.02,SSE,158,3.6,6.3,76,0.00,,,0.01,WUHU216HW,2013-08-08 18:51:00,
2013-08-08 14:56:00,79.9,72.1,30.02,West,270,2.5,6.3,77,0.00,,,0.01,WUHU216HW,2013-08-08 18:56:00,
2013-08-08 15:01:00,79.9,71.6,30.02,South,180,4.7,4.7,76,0.00,,,0.01,WUHU216HW,2013-08-08 19:01:00,
2013-08-08 15:06:00,79.7,71.9,30.01,SSW,203,1.1,4.7,77,0.00,,,0.01,WUHU216HW,2013-08-08 19:06:00,
2013-08-08 15:11:00,80.1,72.3,30.01,SW,225,1.3,4.7,77,0.00,,,0.01,WUHU216HW,2013-08-08 19:11:00,
2013-08-08 15:16:00,80.3,72.0,30.01,SSW,203,1.6,3.4,76,0.00,,,0.01,WUHU216HW,2013-08-08 19:16:00,
2013-08-08 15:21:00,80.1,71.8,30.01,SE,135,1.3,3.6,76,0.00,,,0.01,WUHU216HW,2013-08-08 19:21:00,
2013-08-08 15:26:00,79.9,72.1,30.01,SSE,158,2.0,3.6,77,0.00,,,0.01,WUHU216HW,2013-08-08 19:26:00,
2013-08-08 15:31:00,79.9,72.1,30.01,South,180,0.7,3.1,77,0.00,,,0.01,WUHU216HW,2013-08-08 19:31:00,
2013-08-08 15:36:00,79.9,72.1,30.00,WSW,248,2.9,2.9,77,0.00,,,0.01,WUHU216HW,2013-08-08 19:36:00,
2013-08-08 15:41:00,79.9,72.1,30.00,South,180,1.8,2.9,77,0.00,,,0.01,WUHU216HW,2013-08-08 19:41:00,
2013-08-08 15:46:00,80.1,72.6,30.00,SE,135,1.6,2.9,78,0.00,,,0.01,WUHU216HW,2013-08-08 19:46:00,
2013-08-08 15:51:00,80.3,72.8,30.00,SSE,158,1.6,2.9,78,0.00,,,0.01,WUHU216HW,2013-08-08 19:51:00,
2013-08-08 15:56:00,80.3,72.8,30.00,SSW,203,2.5,4.0,78,0.00,,,0.01,WUHU216HW,2013-08-08 19:56:00,
2013-08-08 16:01:00,79.9,72.5,29.99,South,180,4.0,4.0,78,0.00,,,0.01,WUHU216HW,2013-08-08 20:01:00,
2013-08-08 16:06:00,79.6,72.9,29.99,SE,135,1.8,4.0,80,0.00,,,0.01,WUHU216HW,2013-08-08 20:06:00,
2013-08-08 16:11:00,79.4,72.4,29.99,SE,135,3.1,4.7,79,0.00,,,0.01,WUHU216HW,2013-08-08 20:11:00,
2013-08-08 16:16:00,79.2,72.9,29.99,SE,135,1.1,4.7,81,0.00,,,0.01,WUHU216HW,2013-08-08 20:16:00,
2013-08-08 16:21:00,79.2,72.9,29.98,SW,225,2.2,4.0,81,0.00,,,0.01,WUHU216HW,2013-08-08 20:21:00,
2013-08-08 16:26:00,79.2,72.9,29.98,SE,135,2.5,4.5,81,0.00,,,0.01,WUHU216HW,2013-08-08 20:26:00,
2013-08-08 16:31:00,79.4,73.1,29.98,SE,135,1.3,4.5,81,0.00,,,0.01,WUHU216HW,2013-08-08 20:31:00,
2013-08-08 16:36:00,79.6,72.6,29.98,SE,135,2.9,5.4,79,0.00,,,0.01,WUHU216HW,2013-08-08 20:36:00,
2013-08-08 16:41:00,79.7,72.3,29.98,SE,135,1.8,5.4,78,0.00,,,0.01,WUHU216HW,2013-08-08 20:41:00,
2013-08-08 16:46:00,79.9,72.9,29.98,ESE,113,2.9,5.8,79,0.00,,,0.01,WUHU216HW,2013-08-08 20:46:00,
2013-08-08 16:51:00,79.6,72.6,29.98,East,90,1.8,5.8,79,0.00,,,0.01,WUHU216HW,2013-08-08 20:51:00,
2013-08-08 16:56:00,79.6,72.6,29.98,ESE,113,3.6,6.3,79,0.00,,,0.01,WUHU216HW,2013-08-08 20:56:00,
2013-08-08 17:01:00,79.4,72.7,29.98,ESE,113,2.7,6.3,80,0.00,,,0.01,WUHU216HW,2013-08-08 21:01:00,
2013-08-08 17:06:00,79.2,72.5,29.98,ESE,113,2.5,5.1,80,0.00,,,0.01,WUHU216HW,2013-08-08 21:06:00,
2013-08-08 17:12:00,79.6,72.6,29.98,SSE,158,3.4,5.1,79,0.00,,,0.01,WUHU216HW,2013-08-08 21:12:00,
2013-08-08 17:17:00,79.7,72.7,29.98,SE,135,4.0,4.7,79,0.00,,,0.01,WUHU216HW,2013-08-08 21:17:00,
2013-08-08 17:22:00,79.9,72.5,29.98,SE,135,5.1,5.1,78,0.00,,,0.01,WUHU216HW,2013-08-08 21:22:00,
2013-08-08 17:27:00,80.1,73.1,29.98,SSE,158,1.8,5.1,79,0.00,,,0.01,WUHU216HW,2013-08-08 21:27:00,
2013-08-08 17:32:00,80.3,72.8,29.98,South,180,1.8,4.7,78,0.00,,,0.01,WUHU216HW,2013-08-08 21:32:00,
2013-08-08 17:37:00,80.3,72.8,29.98,SSW,203,2.5,4.3,78,0.00,,,0.01,WUHU216HW,2013-08-08 21:37:00,
2013-08-08 17:42:00,80.3,72.8,29.98,ESE,113,4.0,4.7,78,0.00,,,0.01,WUHU216HW,2013-08-08 21:42:00,
2013-08-08 17:47:00,80.1,72.6,29.98,SE,135,4.7,4.7,78,0.00,,,0.01,WUHU216HW,2013-08-08 21:47:00,
2013-08-08 17:52:00,80.1,72.6,29.98,SE,135,5.4,5.4,78,0.00,,,0.01,WUHU216HW,2013-08-08 21:52:00,
2013-08-08 17:58:00,79.9,72.5,29.99,ESE,113,2.7,5.4,78,0.00,,,0.01,WUHU216HW,2013-08-08 21:58:00,
2013-08-08 18:03:00,79.9,72.5,29.98,SE,135,1.8,5.4,78,0.00,,,0.01,WUHU216HW,2013-08-08 22:03:00,
2013-08-08 18:08:00,79.7,72.3,29.98,SE,135,1.8,2.9,78,0.00,,,0.01,WUHU216HW,2013-08-08 22:08:00,
2013-08-08 18:13:00,79.6,72.1,29.98,West,270,0.9,4.0,78,0.00,,,0.01,WUHU216HW,2013-08-08 22:13:00,
2013-08-08 18:19:00,79.4,71.6,29.98,ESE,113,0.4,4.0,77,0.00,,,0.01,WUHU216HW,2013-08-08 22:19:00,
2013-08-08 18:23:00,79.4,71.6,29.98,NNE,23,2.5,3.4,77,0.00,,,0.01,WUHU216HW,2013-08-08 22:23:00,
2013-08-08 18:28:00,79.2,71.4,29.98,SW,225,1.6,4.0,77,0.00,,,0.01,WUHU216HW,2013-08-08 22:28:00,
2013-08-08 18:34:00,79.0,71.2,29.98,SW,225,5.6,5.6,77,0.00,,,0.01,WUHU216HW,2013-08-08 22:34:00,
2013-08-08 18:39:00,78.8,71.4,29.98,SSW,203,3.6,5.6,78,0.00,,,0.01,WUHU216HW,2013-08-08 22:39:00,
2013-08-08 18:44:00,78.7,71.2,29.98,SSE,158,0.4,3.6,78,0.00,,,0.01,WUHU216HW,2013-08-08 22:44:00,
2013-08-08 18:50:00,78.5,71.5,29.99,SSW,203,0.9,3.6,79,0.00,,,0.01,WUHU216HW,2013-08-08 22:50:00,
2013-08-08 18:55:00,78.5,71.8,29.99,SW,225,1.1,2.5,80,0.01,,,0.02,WUHU216HW,2013-08-08 22:55:00,
2013-08-08 19:00:00,78.1,71.8,29.99,SSW,203,1.1,2.2,81,0.01,,,0.02,WUHU216HW,2013-08-08 23:00:00,
2013-08-08 19:05:00,77.6,71.6,29.99,SW,225,1.1,2.2,82,0.02,,,0.03,WUHU216HW,2013-08-08 23:05:00,
2013-08-08 19:10:00,77.2,71.6,29.99,SW,225,1.3,1.8,83,0.03,,,0.04,WUHU216HW,2013-08-08 23:10:00,
2013-08-08 19:15:00,76.7,71.1,29.99,SW,225,1.1,1.8,83,0.04,,,0.05,WUHU216HW,2013-08-08 23:15:00,
2013-08-08 19:21:00,76.3,71.5,29.99,SSW,203,1.1,2.5,85,0.05,,,0.06,WUHU216HW,2013-08-08 23:21:00,
2013-08-08 19:26:00,76.3,71.5,29.99,WSW,248,1.1,2.5,85,0.05,,,0.06,WUHU216HW,2013-08-08 23:26:00,
2013-08-08 19:31:00,76.0,71.5,29.99,WSW,248,1.6,2.2,86,0.05,,,0.06,WUHU216HW,2013-08-08 23:31:00,
2013-08-08 19:36:00,76.0,71.5,29.99,SSW,203,0.2,2.0,86,0.05,,,0.06,WUHU216HW,2013-08-08 23:36:00,
2013-08-08 19:41:00,76.0,71.8,29.99,SE,135,1.3,1.3,87,0.05,,,0.06,WUHU216HW,2013-08-08 23:41:00,
2013-08-08 19:46:00,75.8,71.6,29.99,SE,135,0.9,1.3,87,0.05,,,0.06,WUHU216HW,2013-08-08 23:46:00,
2013-08-08 19:51:00,75.6,71.5,29.99,SSE,158,0.9,1.3,87,0.05,,,0.06,WUHU216HW,2013-08-08 23:51:00,
2013-08-08 19:56:00,75.4,71.4,29.99,SSW,203,0.0,1.3,87,0.04,,,0.06,WUHU216HW,2013-08-08 23:56:00,
2013-08-08 20:01:00,75.2,71.5,29.99,SE,135,0.9,1.3,88,0.03,,,0.06,WUHU216HW,2013-08-09 00:01:00,
2013-08-08 20:07:00,75.2,71.2,29.99,SE,135,0.0,1.3,87,0.03,,,0.06,WUHU216HW,2013-08-09 00:07:00,
2013-08-08 20:12:00,75.1,71.3,29.99,SW,225,0.2,0.9,88,0.02,,,0.06,WUHU216HW,2013-08-09 00:12:00,
2013-08-08 20:17:00,74.9,70.8,29.99,West,270,1.1,1.1,87,0.00,,,0.06,WUHU216HW,2013-08-09 00:17:00,
2013-08-08 20:22:00,74.7,70.9,29.99,West,270,0.0,1.3,88,0.00,,,0.06,WUHU216HW,2013-08-09 00:22:00,
2013-08-08 20:27:00,74.5,71.1,29.99,SW,225,0.0,1.3,89,0.00,,,0.06,WUHU216HW,2013-08-09 00:27:00,
2013-08-08 20:32:00,74.5,71.1,29.99,SE,135,0.0,0.7,89,0.00,,,0.06,WUHU216HW,2013-08-09 00:32:00,
2013-08-08 20:37:00,74.3,70.9,29.99,SSE,158,0.0,0.7,89,0.00,,,0.06,WUHU216HW,2013-08-09 00:37:00,
2013-08-08 20:42:00,74.3,70.9,29.99,WNW,293,0.4,1.1,89,0.00,,,0.06,WUHU216HW,2013-08-09 00:42:00,
2013-08-08 20:47:00,74.3,71.3,29.99,South,180,0.4,1.1,90,0.00,,,0.06,WUHU216HW,2013-08-09 00:47:00,
2013-08-08 20:52:00,74.3,71.3,29.99,South,180,0.4,1.1,90,0.00,,,0.06,WUHU216HW,2013-08-09 00:52:00,
2013-08-08 20:57:00,74.2,71.1,29.99,South,180,0.4,1.1,90,0.00,,,0.06,WUHU216HW,2013-08-09 00:57:00,
2013-08-08 21:02:00,74.3,71.3,29.99,SSW,203,1.1,1.3,90,0.00,,,0.06,WUHU216HW,2013-08-09 01:02:00,
2013-08-08 21:08:00,74.3,70.9,29.99,SSW,203,0.4,1.3,89,0.00,,,0.06,WUHU216HW,2013-08-09 01:08:00,
2013-08-08 21:13:00,74.3,70.9,29.99,SSW,203,0.0,0.9,89,0.00,,,0.06,WUHU216HW,2013-08-09 01:13:00,
2013-08-08 21:18:00,74.3,70.9,30.00,SSE,158,0.2,0.7,89,0.00,,,0.06,WUHU216HW,2013-08-09 01:18:00,
2013-08-08 21:24:00,74.3,70.9,30.00,SW,225,0.4,1.1,89,0.00,,,0.06,WUHU216HW,2013-08-09 01:24:00,
2013-08-08 21:29:00,74.2,70.7,30.00,West,270,0.9,1.1,89,0.00,,,0.06,WUHU216HW,2013-08-09 01:29:00,
2013-08-08 21:34:00,74.2,71.1,30.00,SW,225,0.0,1.1,90,0.00,,,0.06,WUHU216HW,2013-08-09 01:34:00,
2013-08-08 21:39:00,74.2,71.1,30.00,SSW,203,0.2,1.1,90,0.00,,,0.06,WUHU216HW,2013-08-09 01:39:00,
2013-08-08 21:44:00,74.2,71.1,30.00,WSW,248,1.8,1.8,90,0.00,,,0.06,WUHU216HW,2013-08-09 01:44:00,
2013-08-08 21:50:00,74.2,71.1,30.00,SSW,203,2.2,2.2,90,0.00,,,0.06,WUHU216HW,2013-08-09 01:50:00,
2013-08-08 21:55:00,74.2,71.1,30.00,SW,225,0.9,2.2,90,0.00,,,0.06,WUHU216HW,2013-08-09 01:55:00,
2013-08-08 22:01:00,74.5,71.1,30.01,SSW,203,2.2,3.4,89,0.00,,,0.06,WUHU216HW,2013-08-09 02:01:00,
2013-08-08 22:06:00,74.5,71.1,30.01,SSW,203,1.8,4.0,89,0.01,,,0.07,WUHU216HW,2013-08-09 02:06:00,
2013-08-08 22:11:00,74.5,71.1,30.01,WNW,293,0.7,3.8,89,0.01,,,0.07,WUHU216HW,2013-08-09 02:11:00,
2013-08-08 22:16:00,74.5,71.1,30.00,SE,135,0.7,1.8,89,0.01,,,0.07,WUHU216HW,2013-08-09 02:16:00,
2013-08-08 22:21:00,74.5,71.1,30.00,SE,135,0.0,1.8,89,0.02,,,0.08,WUHU216HW,2013-08-09 02:21:00,
2013-08-08 22:26:00,74.3,70.9,29.99,SE,135,0.0,1.8,89,0.02,,,0.08,WUHU216HW,2013-08-09 02:26:00,
2013-08-08 22:31:00,74.2,70.7,29.99,SE,135,0.0,0.9,89,0.02,,,0.08,WUHU216HW,2013-08-09 02:31:00,
2013-08-08 22:36:00,74.0,70.6,29.99,SW,225,0.0,0.4,89,0.02,,,0.08,WUHU216HW,2013-08-09 02:36:00,
2013-08-08 22:42:00,73.8,70.4,29.99,SW,225,0.0,0.4,89,0.02,,,0.08,WUHU216HW,2013-08-09 02:42:00,
2013-08-08 22:47:00,73.8,71.0,29.99,SW,225,0.4,0.4,91,0.02,,,0.08,WUHU216HW,2013-08-09 02:47:00,
2013-08-08 22:52:00,73.6,70.6,29.99,SW,225,1.3,1.3,90,0.02,,,0.08,WUHU216HW,2013-08-09 02:52:00,
2013-08-08 22:57:00,73.6,70.6,29.99,SW,225,0.2,1.3,90,0.02,,,0.08,WUHU216HW,2013-08-09 02:57:00,
2013-08-08 23:02:00,73.8,71.0,29.99,SE,135,0.4,1.3,91,0.02,,,0.08,WUHU216HW,2013-08-09 03:02:00,
2013-08-08 23:07:00,73.8,71.0,29.99,ESE,113,1.1,1.6,91,0.01,,,0.08,WUHU216HW,2013-08-09 03:07:00,
2013-08-08 23:12:00,73.6,70.8,29.99,SE,135,0.7,1.6,91,0.01,,,0.08,WUHU216HW,2013-08-09 03:12:00,
2013-08-08 23:17:00,73.4,70.7,29.99,SSE,158,0.0,1.8,91,0.00,,,0.08,WUHU216HW,2013-08-09 03:17:00,
2013-08-08 23:22:00,73.4,70.7,29.99,SSW,203,1.6,1.8,91,0.00,,,0.08,WUHU216HW,2013-08-09 03:22:00,
2013-08-08 23:27:00,73.6,70.8,29.98,SSE,158,1.1,1.6,91,0.00,,,0.08,WUHU216HW,2013-08-09 03:27:00,
2013-08-08 23:33:00,73.6,70.8,29.99,SSW,203,1.1,1.6,91,0.00,,,0.08,WUHU216HW,2013-08-09 03:33:00,
2013-08-08 23:38:00,73.6,70.8,29.99,SSW,203,0.4,1.3,91,0.00,,,0.08,WUHU216HW,2013-08-09 03:38:00,
2013-08-08 23:43:00,73.6,70.8,29.99,South,180,0.4,1.3,91,0.00,,,0.08,WUHU216HW,2013-08-09 03:43:00,
2013-08-08 23:48:00,73.8,71.0,29.98,SSE,158,1.1,1.1,91,0.00,,,0.08,WUHU216HW,2013-08-09 03:48:00,
2013-08-08 23:53:00,73.8,71.0,29.98,SE,135,0.9,1.1,91,0.00,,,0.08,WUHU216HW,2013-08-09 03:53:00,
2013-08-08 23:58:00,73.6,70.8,29.97,SE,135,1.1,2.5,91,0.00,,,0.08,WUHU216HW,2013-08-09 03:58:00,